Regional Weather Roundup
Issued by NWS

Home | Current Version | Previous Version | Graphics & Text | Print | Product List | Glossary On
Versions: 1 2 3 4 5 6 7 8 9 10 11 12 13 14 15 16 17 18 19 20 21 22 23 24 25 26 27 28 29 30 31 32 33 34 35 36 37 38 39 40 41 42 43 44 45 46 47 48 49 50
000
ASUS43 KMKX 030511
RWRWI

WISCONSIN REGIONAL WEATHER ROUNDUP
NATIONAL WEATHER SERVICE MILWAUKEE/SULLIVAN WI
1200 AM CDT FRI JUL 03 2015

NOTE: "FAIR" INDICATES FEW OR NO CLOUDS BELOW 12,000 FEET WITH NO
SIGNIFICANT WEATHER AND/OR OBSTRUCTIONS TO VISIBILITY.

WIZ001-002-006>008-014>016-023>028-030600-
NORTHWEST WISCONSIN

CITY           SKY/WX    TMP DP  RH WIND       PRES   REMARKS
SUPERIOR ARPT  CLEAR     60  57  88 SW5       29.93S
ASHLAND        CLEAR     62  54  74 SW7       29.94F
HAYWARD        CLEAR     55  52  89 CALM      29.98F
SIREN          CLEAR     57  53  89 CALM      29.98S
CUMBERLAND     CLEAR     57  54  88 CALM      29.99S
RICE LAKE      CLEAR     59  57  93 CALM      30.00F
CHETEK         CLEAR     58  57  96 S3        29.99F
LADYSMITH      CLEAR     59  56  90 CALM      30.01F
EAU CLAIRE     CLEAR     59  55  87 CALM      29.98S
MENOMONIE      CLEAR     62  57  83 CALM      29.99F
NEW RICHMOND   CLEAR     59  53  79 CALM      29.99F
OSCEOLA        CLEAR     60  59  99 CALM      30.01S
$$

WIZ003>005-009-010-017-018-030600-
NORTH CENTRAL WISCONSIN

CITY           SKY/WX    TMP DP  RH WIND       PRES   REMARKS
MANITOWISH WTR CLEAR     58  55  91 W3        29.99R
ARBOR VITAE    CLEAR     59  55  85 SW5       29.99F
WOODRUFF       CLEAR     59  55  85 SW5       29.99F
RHINELANDER    CLEAR     60  51  72 SW9       30.01S
EAGLE RIVER    CLEAR     61  50  67 SW3       29.99F
LAND O LAKES   CLEAR     57  53  84 CALM      29.99F
PHILLIPS       CLEAR     59  55  84 SW3       29.99F
TOMAHAWK       CLEAR     53  51  93 CALM      30.01S
MEDFORD        CLEAR     56  51  84 S3        30.01S
MERRILL        CLEAR     52  51  97 CALM      30.02S
$$

WIZ029-030-035-036-043>047-030600-
CENTRAL WISCONSIN

CITY           SKY/WX    TMP DP  RH WIND       PRES   REMARKS
WAUSAU         CLEAR     60  52  74 CALM      30.00S
MOSINEE        CLEAR     54  52  94 S5        30.02S
MARSHFIELD     CLEAR     59  50  72 CALM      30.01S
STEVENS POINT  CLEAR     51  49  93 CALM      30.02S
WAUPACA        CLEAR     55  54  95 CALM      30.01F
WAUTOMA        CLEAR     53  53 100 CALM      30.02S
WISC RAPIDS    CLEAR     55  50  83 SE3       30.02S
CAMP DOUGLAS   FOG       48  48 100 CALM      30.00S VSB 1/2
$$

WIZ011>013-019>022-031-037>040-048>050-030600-
NORTHEAST WISCONSIN

CITY           SKY/WX    TMP DP  RH WIND       PRES   REMARKS
ANTIGO         CLEAR     53  49  87 S5        30.02S
SHAWANO        CLEAR     60  51  74 CALM      30.01S
OCONTO         CLEAR     50  50 100 CALM      29.99S
STURGEON BAY   CLEAR     52  45  76 S3        30.02S
GREEN BAY      CLEAR     55  52  89 S3        30.01S
MANITOWOC      CLEAR     52  49  89 MISG      30.02S
APPLETON       CLEAR     61  46  59 S3        30.02S
CLINTONVILLE   CLEAR     54  48  82 CALM      30.01S
OSHKOSH        CLEAR     55  49  80 S6        30.01S
$$

WIZ032>034-041-042-053>061-030600-
SOUTHWEST WISCONSIN

CITY           SKY/WX    TMP DP  RH WIND       PRES   REMARKS
LA CROSSE      PTCLDY    61  56  83 E7        29.99S
SPARTA         CLEAR     51  50  95 CALM      30.02R
VIROQUA        PTCLDY    60  52  74 SE3       30.01F
BOSCOBEL       MOCLDY    54  52  93 CALM      30.00S
PRAIRIE DU CHI CLOUDY    56  54  91 E3        29.99S
PLATTEVILLE    CLOUDY    60  53  77 NE5       30.00S
$$

WIZ056-057-062-063-064-067-068-030600-
SOUTH CENTRAL WISCONSIN

CITY           SKY/WX    TMP DP  RH WIND       PRES   REMARKS
REEDSBURG      PTCLDY    54  54  98 CALM      30.00S
BARABOO/DELLS  PTCLDY    54  50  86 CALM      30.01S
LONE ROCK      PTCLDY    54  52  93 CALM      30.01S
MINERAL POINT  MOCLDY    59  52  77 E5        30.00S
MADISON        MOCLDY    54  47  77 CALM      30.01R
MIDDLETON      MOCLDY    55  53  92 CALM      30.02R
WATERTOWN      PTCLDY    55  51  86 CALM      30.01S
MONROE         CLOUDY    57  50  77 E5        30.00S
JANESVILLE     CLOUDY    55  54  94 E3        30.00S
$$

WIZ051-052-058>065-066-070>072-030600-
SOUTHEAST WISCONSIN

CITY           SKY/WX    TMP DP  RH WIND       PRES   REMARKS
MILWAUKEE      MOCLDY    57  46  66 CALM      30.02R
WAUKESHA       PTCLDY    52  43  71 CALM      30.03S
MILWAUKEE/TIMM PTCLDY    55  45  67 CALM      30.03S
RACINE         PTCLDY    56  46  69 N5        30.03S
BURLINGTON     MOCLDY    49  46  88 CALM      30.01S
KENOSHA        MOCLDY    54  47  77 N3        30.01S
FOND DU LAC    CLEAR     55  49  80 S3        30.02S
SHEBOYGAN      CLEAR     51  47  86 CALM      30.02F
WEST BEND      CLEAR     50  46  87 CALM      30.02F
JUNEAU         PTCLDY    56  50  81 E5        30.02S
$$

LSZ147-162-030600-
LAKE SUPERIOR

STATION/POSITION TIME  TEMP    WIND        PRES    WAVE
                       AIR SEA DIR/SP/G            HT/PER
                 (UTC) (F)     (DEG/KT/KT) (MB)    (FT/S)
W MID LAKE BUOY  0450   49 39  220/ 12/ 14 1012.1F   0
DEVILS ISLAND    0500   66     220/ 13/ 15 1012.5F
SAXON HARBOR     0400   62      CALM  /  4 1013.5F
$$

LMZ867-665-643>646-030600-
LAKE MICHIGAN

STATION/POSITION TIME  TEMP    WIND        PRES    WAVE
                       AIR SEA DIR/SP/G            HT/PER
                 (UTC) (F)     (DEG/KT/KT) (MB)    (FT/S)
CHAMBERS ISLAND  0400   57     160/  2/  2 1015.6F
N MID LAKE BUOY  0450   53 49  190/  6/  6 1015.6F   0
NORTHPORT PIER   0400   57     200/  2/  5 1015.6F
ALGOMA LAKESHORE 0410             CALM       N/A
KEWAUNEE LAKESHO 0400   54      CALM  /  2 1015.4F
SHEBOYGAN LAKESH 0500   59     300/  2/  2 1016.8F
PORT WASHINGTON  0400   59     340/  2/  4 1017.3
ATWATER BUOY     0500   60      10/  6/  8 1017.7R
MILWAUKEE LAKESH 0400   59     350/  4/  5   N/A
KENOSHA   LAKESH 0500   60      10/  9/ 10 1015.9S
$$

TC  - TEMPERATURE IN CELSIUS
VSB - VISIBILITY IN STATUTE MILES
WCI - WIND CHILL INDEX
HX  - HEAT INDEX




USA.gov is the U.S. government's official web portal to all federal, state and local government web resources and services.